RYR64E EHEH-EKCH

Flight info

Callsign RYR64E
Flight time 1h 6m
Altitude 31000
Route VELNI2J VELNI Y869 SUMOP L179 ERKUM/N0448F350 L179 MEVEL Y850 BASUM DCT MAKEL N851 GESKA Z711 MONAK MONAK4C
Aircraft B738/M-SDE2E3FGHIRWXY/LB1

Departure

Time 2026-05-06 18:57
Airport Eindhoven Airport (EHEH)

Arrival

Time 2026-05-06 20:03
Airport Copenhagen Kastrup Airport (EKCH)
Time Latitude Longitude Altitude Speed Heading
2026-05-06 18:28 51.45720 5.38895 66 ft 0 kts 125°
2026-05-06 18:43 51.45726 5.38881 62 ft 4 kts 122°
2026-05-06 18:43 51.45738 5.38843 72 ft 4 kts 107°
2026-05-06 18:43 51.45742 5.38802 67 ft 4 kts 82°
2026-05-06 18:44 51.45734 5.38768 68 ft 2 kts 36°
2026-05-06 18:44 51.45732 5.38767 64 ft 0 kts 35°
2026-05-06 18:47 51.45738 5.38773 66 ft 2 kts 35°
2026-05-06 18:47 51.45750 5.38786 67 ft 3 kts 35°
2026-05-06 18:48 51.45775 5.38791 68 ft 5 kts 347°
2026-05-06 18:48 51.45806 5.38746 70 ft 7 kts 305°
2026-05-06 18:48 51.45839 5.38670 70 ft 9 kts 305°
2026-05-06 18:48 51.45876 5.38586 75 ft 9 kts 305°
2026-05-06 18:49 51.45912 5.38504 76 ft 9 kts 305°
2026-05-06 18:49 51.45952 5.38417 69 ft 11 kts 307°
2026-05-06 18:49 51.45997 5.38311 67 ft 10 kts 292°
2026-05-06 18:49 51.45961 5.38234 70 ft 10 kts 216°
2026-05-06 18:50 51.45901 5.38167 70 ft 11 kts 214°
2026-05-06 18:50 51.45833 5.38091 65 ft 13 kts 215°
2026-05-06 18:50 51.45758 5.38007 70 ft 14 kts 215°
2026-05-06 18:50 51.45675 5.37914 68 ft 15 kts 214°
2026-05-06 18:51 51.45589 5.37815 71 ft 15 kts 216°
2026-05-06 18:51 51.45500 5.37717 72 ft 15 kts 215°
2026-05-06 18:51 51.45415 5.37621 74 ft 15 kts 215°
2026-05-06 18:51 51.45329 5.37526 68 ft 16 kts 214°
2026-05-06 18:52 51.45239 5.37425 71 ft 16 kts 214°
2026-05-06 18:52 51.45151 5.37326 70 ft 15 kts 214°
2026-05-06 18:52 51.45063 5.37229 69 ft 16 kts 214°
2026-05-06 18:52 51.44971 5.37125 65 ft 14 kts 216°
2026-05-06 18:53 51.44890 5.37034 67 ft 14 kts 215°
2026-05-06 18:53 51.44807 5.36940 72 ft 15 kts 215°
2026-05-06 18:53 51.44734 5.36860 72 ft 11 kts 215°
2026-05-06 18:53 51.44669 5.36787 74 ft 12 kts 215°
2026-05-06 18:54 51.44595 5.36705 68 ft 14 kts 215°
2026-05-06 18:54 51.44514 5.36614 66 ft 14 kts 216°
2026-05-06 18:54 51.44433 5.36522 69 ft 14 kts 215°
2026-05-06 18:54 51.44351 5.36432 72 ft 15 kts 215°
2026-05-06 18:55 51.44266 5.36335 74 ft 16 kts 215°
2026-05-06 18:55 51.44192 5.36264 71 ft 2 kts 187°
2026-05-06 18:55 51.44153 5.36210 67 ft 15 kts 216°
2026-05-06 18:55 51.44064 5.36110 67 ft 17 kts 215°
2026-05-06 18:56 51.43980 5.36092 67 ft 11 kts 129°
2026-05-06 18:56 51.43936 5.36219 69 ft 10 kts 87°
2026-05-06 18:56 51.43989 5.36304 74 ft 9 kts 36°
2026-05-06 18:56 51.44148 5.36482 73 ft 66 kts 35°
2026-05-06 18:57 51.44789 5.37199 83 ft 152 kts 34°
2026-05-06 18:57 51.45770 5.38307 521 ft 189 kts 35°
2026-05-06 18:57 51.46903 5.39561 1196 ft 202 kts 34°
2026-05-06 18:57 51.48070 5.40861 1843 ft 209 kts 35°
2026-05-06 18:58 51.49258 5.42181 2626 ft 207 kts 36°
2026-05-06 18:58 51.50430 5.43504 3421 ft 206 kts 39°
2026-05-06 18:58 51.51294 5.45362 4016 ft 215 kts 70°
2026-05-06 18:58 51.51439 5.47785 4704 ft 225 kts 96°
2026-05-06 18:59 51.51002 5.50253 5443 ft 233 kts 106°
2026-05-06 18:59 51.50483 5.52716 5826 ft 233 kts 106°
2026-05-06 18:59 51.49958 5.55217 5922 ft 240 kts 106°
2026-05-06 18:59 51.49430 5.57771 6291 ft 242 kts 104°
2026-05-06 19:00 51.49032 5.60407 7107 ft 243 kts 99°
2026-05-06 19:00 51.48674 5.63139 7625 ft 262 kts 99°
2026-05-06 19:00 51.48384 5.66131 8112 ft 277 kts 88°
2026-05-06 19:00 51.48575 5.69229 8881 ft 281 kts 81°
2026-05-06 19:01 51.48855 5.72363 9701 ft 287 kts 80°
2026-05-06 19:01 51.49144 5.75583 10335 ft 299 kts 80°
2026-05-06 19:01 51.49446 5.79025 10526 ft 324 kts 81°
2026-05-06 19:01 51.49755 5.82674 10861 ft 342 kts 81°
2026-05-06 19:02 51.50071 5.86511 11518 ft 349 kts 81°
2026-05-06 19:02 51.50384 5.90401 12284 ft 353 kts 81°
2026-05-06 19:02 51.50697 5.94348 13031 ft 358 kts 81°
2026-05-06 19:02 51.51012 5.98341 13751 ft 363 kts 81°
2026-05-06 19:03 51.51330 6.02395 14400 ft 368 kts 82°
2026-05-06 19:03 51.51649 6.06496 15101 ft 371 kts 82°
2026-05-06 19:03 51.51971 6.10636 15776 ft 375 kts 82°
2026-05-06 19:03 51.52290 6.14754 16442 ft 379 kts 82°
2026-05-06 19:04 51.52616 6.18989 17086 ft 383 kts 82°
2026-05-06 19:04 51.52980 6.23259 17744 ft 387 kts 80°
2026-05-06 19:04 51.53439 6.27535 18351 ft 392 kts 79°
2026-05-06 19:04 51.53935 6.31884 18825 ft 398 kts 79°
2026-05-06 19:05 51.54432 6.36279 19410 ft 401 kts 80°
2026-05-06 19:05 51.54919 6.40696 20019 ft 403 kts 80°
2026-05-06 19:05 51.55399 6.45146 20587 ft 406 kts 80°
2026-05-06 19:05 51.55877 6.49646 21132 ft 409 kts 81°
2026-05-06 19:06 51.56385 6.54161 21666 ft 413 kts 77°
2026-05-06 19:06 51.57295 6.58554 22189 ft 416 kts 66°
2026-05-06 19:06 51.58665 6.62656 22705 ft 419 kts 55°
2026-05-06 19:06 51.60409 6.66426 23251 ft 421 kts 52°
2026-05-06 19:07 51.62214 6.70158 23703 ft 425 kts 51°
2026-05-06 19:07 51.64023 6.73970 24030 ft 431 kts 52°
2026-05-06 19:07 51.65790 6.77785 24439 ft 432 kts 53°
2026-05-06 19:07 51.67576 6.81671 25020 ft 430 kts 52°
2026-05-06 19:08 51.69544 6.85312 25482 ft 431 kts 44°
2026-05-06 19:08 51.71690 6.88713 25845 ft 434 kts 43°
2026-05-06 19:08 51.73892 6.92088 26220 ft 438 kts 43°
2026-05-06 19:08 51.76106 6.95464 26618 ft 440 kts 43°
2026-05-06 19:09 51.78332 6.98879 27024 ft 441 kts 43°
2026-05-06 19:09 51.80490 7.02224 27404 ft 443 kts 43°
2026-05-06 19:09 51.82713 7.05701 27775 ft 446 kts 43°
2026-05-06 19:09 51.84936 7.09201 28138 ft 448 kts 44°
2026-05-06 19:10 51.87169 7.12735 28595 ft 448 kts 44°
2026-05-06 19:10 51.89382 7.16248 29225 ft 444 kts 44°
2026-05-06 19:10 51.91583 7.19752 29761 ft 442 kts 44°
2026-05-06 19:10 51.93780 7.23252 30155 ft 443 kts 44°
2026-05-06 19:11 51.95976 7.26757 30481 ft 443 kts 44°
2026-05-06 19:11 51.98174 7.30268 30849 ft 444 kts 44°
2026-05-06 19:11 52.00381 7.33799 30882 ft 449 kts 44°
2026-05-06 19:12 52.04825 7.40923 30891 ft 447 kts 45°
2026-05-06 19:12 52.09201 7.47957 30902 ft 443 kts 45°
2026-05-06 19:13 52.13577 7.55012 30919 ft 442 kts 45°
2026-05-06 19:13 52.17985 7.62141 31281 ft 449 kts 45°
2026-05-06 19:13 52.20198 7.65728 31668 ft 448 kts 45°
2026-05-06 19:14 52.22406 7.69312 32076 ft 446 kts 45°
2026-05-06 19:14 52.24599 7.72876 32459 ft 445 kts 45°
2026-05-06 19:14 52.25666 7.74613 32634 ft 445 kts 45°
2026-05-06 19:15 52.27863 7.78192 32945 ft 447 kts 45°
2026-05-06 19:15 52.30040 7.81744 33204 ft 448 kts 45°
2026-05-06 19:15 52.32243 7.85342 33538 ft 448 kts 45°
2026-05-06 19:15 52.34447 7.88949 33896 ft 447 kts 45°
2026-05-06 19:16 52.36644 7.92549 34175 ft 447 kts 45°
2026-05-06 19:16 52.38846 7.96164 34366 ft 449 kts 45°
2026-05-06 19:16 52.41049 7.99785 34568 ft 450 kts 45°
2026-05-06 19:16 52.43198 8.03322 34798 ft 450 kts 45°
2026-05-06 19:17 52.45409 8.06967 34891 ft 454 kts 45°
2026-05-06 19:17 52.49910 8.14405 34925 ft 464 kts 45°
2026-05-06 19:18 52.54500 8.22013 34890 ft 471 kts 45°
2026-05-06 19:18 52.59107 8.29674 34886 ft 471 kts 45°
2026-05-06 19:19 52.63677 8.37297 34894 ft 470 kts 45°
2026-05-06 19:19 52.68264 8.44974 34882 ft 470 kts 45°
2026-05-06 19:20 52.72844 8.52662 34893 ft 469 kts 45°
2026-05-06 19:20 52.77408 8.60347 34883 ft 468 kts 45°
2026-05-06 19:21 52.81958 8.68034 34899 ft 467 kts 45°
2026-05-06 19:21 52.86500 8.75733 34909 ft 467 kts 45°
2026-05-06 19:22 52.91033 8.83440 34909 ft 467 kts 45°
2026-05-06 19:22 52.95539 8.91126 34913 ft 467 kts 45°
2026-05-06 19:23 53.00060 8.98862 34908 ft 467 kts 45°
2026-05-06 19:23 53.04516 9.06511 34905 ft 467 kts 45°
2026-05-06 19:24 53.09030 9.14284 34901 ft 466 kts 45°
2026-05-06 19:24 53.13536 9.22069 34883 ft 467 kts 45°
2026-05-06 19:25 53.18040 9.29875 34895 ft 467 kts 46°
2026-05-06 19:25 53.22548 9.37713 34898 ft 468 kts 46°
2026-05-06 19:26 53.27032 9.45536 34890 ft 469 kts 46°
2026-05-06 19:26 53.31549 9.53442 34883 ft 471 kts 46°
2026-05-06 19:27 53.36073 9.61384 34897 ft 471 kts 46°
2026-05-06 19:27 53.40595 9.69351 34885 ft 472 kts 46°
2026-05-06 19:28 53.45114 9.77339 34912 ft 472 kts 46°
2026-05-06 19:28 53.49622 9.85334 34911 ft 471 kts 46°
2026-05-06 19:29 53.54120 9.93337 34909 ft 468 kts 46°
2026-05-06 19:29 53.56335 9.97288 34693 ft 460 kts 46°
2026-05-06 19:29 53.57780 9.99870 34382 ft 458 kts 46°
2026-05-06 19:29 53.60640 10.04986 33656 ft 457 kts 46°
2026-05-06 19:30 53.62082 10.07570 33172 ft 458 kts 46°
2026-05-06 19:30 53.64979 10.12767 32220 ft 459 kts 46°
2026-05-06 19:30 53.67161 10.16692 31520 ft 460 kts 46°
2026-05-06 19:30 53.68641 10.19356 31056 ft 460 kts 46°
2026-05-06 19:31 53.70832 10.23306 30370 ft 460 kts 47°
2026-05-06 19:31 53.72984 10.27193 29616 ft 460 kts 47°
2026-05-06 19:31 53.77353 10.35102 28206 ft 455 kts 47°
2026-05-06 19:32 53.79481 10.38964 28051 ft 448 kts 47°
2026-05-06 19:32 53.81627 10.42865 27957 ft 458 kts 47°
2026-05-06 19:32 53.83820 10.46858 27920 ft 466 kts 47°
2026-05-06 19:32 53.86042 10.50911 27921 ft 471 kts 47°
2026-05-06 19:33 53.88274 10.54988 27902 ft 471 kts 47°
2026-05-06 19:33 53.90492 10.59046 27900 ft 467 kts 47°
2026-05-06 19:33 53.92693 10.63079 27904 ft 464 kts 47°
2026-05-06 19:33 53.94884 10.67103 27909 ft 465 kts 47°
2026-05-06 19:34 53.97081 10.71142 27916 ft 466 kts 47°
2026-05-06 19:34 53.99250 10.75138 27912 ft 466 kts 47°
2026-05-06 19:34 54.01445 10.79187 27921 ft 467 kts 47°
2026-05-06 19:34 54.03646 10.83256 27908 ft 468 kts 47°
2026-05-06 19:35 54.05852 10.87339 27922 ft 468 kts 47°
2026-05-06 19:35 54.08058 10.91430 27919 ft 469 kts 47°
2026-05-06 19:35 54.10264 10.95528 27919 ft 470 kts 47°
2026-05-06 19:35 54.12472 10.99638 27918 ft 470 kts 47°
2026-05-06 19:36 54.14624 11.03649 27927 ft 471 kts 47°
2026-05-06 19:36 54.16835 11.07776 27922 ft 471 kts 47°
2026-05-06 19:36 54.19042 11.11904 27923 ft 471 kts 48°
2026-05-06 19:36 54.21253 11.16046 27923 ft 471 kts 48°
2026-05-06 19:37 54.23457 11.20182 27935 ft 470 kts 48°
2026-05-06 19:37 54.25662 11.24327 27921 ft 470 kts 48°
2026-05-06 19:37 54.27863 11.28472 27926 ft 471 kts 48°
2026-05-06 19:37 54.30070 11.32637 27909 ft 473 kts 48°
2026-05-06 19:38 54.32265 11.36784 27602 ft 465 kts 48°
2026-05-06 19:38 54.34405 11.40833 27364 ft 451 kts 48°
2026-05-06 19:38 54.36468 11.44744 27395 ft 434 kts 48°
2026-05-06 19:38 54.38436 11.48480 27025 ft 423 kts 48°
2026-05-06 19:39 54.40383 11.52182 26591 ft 411 kts 48°
2026-05-06 19:39 54.42272 11.55781 26170 ft 400 kts 48°
2026-05-06 19:39 54.44115 11.59298 25776 ft 394 kts 48°
2026-05-06 19:39 54.45942 11.62788 25392 ft 392 kts 48°
2026-05-06 19:40 54.47756 11.66260 24982 ft 390 kts 47°
2026-05-06 19:40 54.49569 11.69733 24589 ft 388 kts 47°
2026-05-06 19:40 54.51368 11.73185 24185 ft 386 kts 47°
2026-05-06 19:40 54.53160 11.76628 23777 ft 385 kts 47°
2026-05-06 19:41 54.54945 11.80063 23336 ft 384 kts 47°
2026-05-06 19:41 54.56727 11.83495 22889 ft 382 kts 47°
2026-05-06 19:41 54.58495 11.86904 22472 ft 380 kts 47°
2026-05-06 19:41 54.60244 11.90284 22069 ft 377 kts 47°
2026-05-06 19:42 54.62057 11.93529 21652 ft 374 kts 39°
2026-05-06 19:42 54.64131 11.96179 21265 ft 370 kts 32°
2026-05-06 19:42 54.66274 11.98627 20855 ft 368 kts 31°
2026-05-06 19:42 54.68349 12.00966 20496 ft 366 kts 31°
2026-05-06 19:43 54.70476 12.03371 20117 ft 364 kts 31°
2026-05-06 19:43 54.72563 12.05750 19744 ft 362 kts 32°
2026-05-06 19:43 54.74659 12.08158 19360 ft 361 kts 32°
2026-05-06 19:43 54.76743 12.10566 18989 ft 359 kts 32°
2026-05-06 19:44 54.78818 12.12971 18615 ft 358 kts 32°
2026-05-06 19:44 54.80885 12.15373 18228 ft 357 kts 32°
2026-05-06 19:44 54.82947 12.17774 17790 ft 356 kts 32°
2026-05-06 19:44 54.84998 12.20165 17396 ft 354 kts 32°
2026-05-06 19:45 54.87036 12.22545 17019 ft 351 kts 32°
2026-05-06 19:45 54.89057 12.24906 16644 ft 349 kts 32°
2026-05-06 19:45 54.91063 12.27252 16283 ft 346 kts 32°
2026-05-06 19:45 54.93055 12.29585 15910 ft 344 kts 32°
2026-05-06 19:46 54.95060 12.31832 15575 ft 340 kts 28°
2026-05-06 19:46 54.97125 12.33790 15330 ft 336 kts 25°
2026-05-06 19:46 54.99198 12.35636 15081 ft 334 kts 25°
2026-05-06 19:46 55.01270 12.37460 14827 ft 331 kts 25°
2026-05-06 19:47 55.03285 12.39246 14513 ft 329 kts 25°
2026-05-06 19:47 55.05314 12.41060 14186 ft 326 kts 25°
2026-05-06 19:47 55.07325 12.42874 13847 ft 324 kts 26°
2026-05-06 19:47 55.09324 12.44688 13469 ft 323 kts 25°
2026-05-06 19:48 55.11306 12.46494 13108 ft 321 kts 26°
2026-05-06 19:48 55.13276 12.48297 12743 ft 318 kts 25°
2026-05-06 19:48 55.15232 12.50091 12401 ft 316 kts 26°
2026-05-06 19:48 55.17172 12.51874 12058 ft 314 kts 26°
2026-05-06 19:49 55.19095 12.53645 11718 ft 311 kts 26°
2026-05-06 19:49 55.21004 12.55403 11384 ft 309 kts 27°
2026-05-06 19:49 55.22900 12.57153 11051 ft 307 kts 27°
2026-05-06 19:49 55.24785 12.58895 10720 ft 305 kts 27°
2026-05-06 19:50 55.26658 12.60626 10401 ft 303 kts 27°
2026-05-06 19:50 55.28495 12.62327 10275 ft 294 kts 27°
2026-05-06 19:50 55.30280 12.63982 10142 ft 286 kts 27°
2026-05-06 19:50 55.32017 12.65593 10019 ft 277 kts 27°
2026-05-06 19:51 55.33707 12.67162 9812 ft 273 kts 27°
2026-05-06 19:51 55.35384 12.68721 9536 ft 271 kts 27°
2026-05-06 19:51 55.37017 12.70240 9272 ft 268 kts 28°
2026-05-06 19:51 55.38662 12.71772 9022 ft 265 kts 28°
2026-05-06 19:52 55.40288 12.73288 8753 ft 263 kts 28°
2026-05-06 19:52 55.41898 12.74790 8491 ft 260 kts 28°
2026-05-06 19:52 55.43488 12.76274 8254 ft 258 kts 28°
2026-05-06 19:52 55.45066 12.77750 7986 ft 256 kts 28°
2026-05-06 19:53 55.46629 12.79212 7744 ft 253 kts 29°
2026-05-06 19:53 55.48175 12.80660 7498 ft 251 kts 29°
2026-05-06 19:53 55.49711 12.82100 7231 ft 249 kts 29°
2026-05-06 19:53 55.51238 12.83532 6983 ft 247 kts 29°
2026-05-06 19:54 55.52750 12.84952 6756 ft 245 kts 29°
2026-05-06 19:54 55.54250 12.86362 6507 ft 243 kts 29°
2026-05-06 19:54 55.55741 12.87765 6271 ft 242 kts 29°
2026-05-06 19:54 55.57222 12.89158 6021 ft 239 kts 29°
2026-05-06 19:55 55.58670 12.90523 5776 ft 237 kts 30°
2026-05-06 19:55 55.60122 12.91893 5526 ft 236 kts 30°
2026-05-06 19:55 55.61566 12.93255 5273 ft 234 kts 30°
2026-05-06 19:55 55.62999 12.94610 5037 ft 233 kts 29°
2026-05-06 19:56 55.64434 12.95968 4782 ft 236 kts 29°
2026-05-06 19:56 55.65902 12.97355 4533 ft 243 kts 29°
2026-05-06 19:56 55.67415 12.98728 4313 ft 241 kts 28°
2026-05-06 19:56 55.68865 13.00019 4182 ft 227 kts 28°
2026-05-06 19:57 55.70227 13.01216 4137 ft 223 kts 28°
2026-05-06 19:57 55.71623 13.02437 4014 ft 224 kts 28°
2026-05-06 19:57 55.73095 13.03267 3844 ft 224 kts
2026-05-06 19:57 55.74560 13.02586 3744 ft 217 kts 329°
2026-05-06 19:58 55.75583 13.00660 3665 ft 215 kts 306°
2026-05-06 19:58 55.76379 12.98399 3553 ft 218 kts 291°
2026-05-06 19:58 55.76574 12.95768 3490 ft 213 kts 267°
2026-05-06 19:58 55.76296 12.93213 3349 ft 212 kts 242°
2026-05-06 19:59 55.75618 12.90889 3286 ft 213 kts 242°
2026-05-06 19:59 55.74995 12.88530 3158 ft 208 kts 244°
2026-05-06 19:59 55.74412 12.86212 3027 ft 203 kts 244°
2026-05-06 19:59 55.73707 12.84149 2887 ft 192 kts 224°
2026-05-06 20:00 55.72732 12.82564 2662 ft 190 kts 219°
2026-05-06 20:00 55.71766 12.81034 2421 ft 187 kts 218°
2026-05-06 20:00 55.70789 12.79520 2164 ft 185 kts 219°
2026-05-06 20:00 55.69829 12.78037 1930 ft 181 kts 218°
2026-05-06 20:01 55.68901 12.76600 1688 ft 174 kts 219°
2026-05-06 20:01 55.68009 12.75220 1447 ft 166 kts 218°
2026-05-06 20:01 55.67173 12.73926 1265 ft 153 kts 218°
2026-05-06 20:01 55.66411 12.72747 1081 ft 142 kts 218°
2026-05-06 20:02 55.65676 12.71611 863 ft 140 kts 218°
2026-05-06 20:02 55.64961 12.70504 717 ft 135 kts 217°
2026-05-06 20:02 55.64249 12.69399 532 ft 137 kts 218°
2026-05-06 20:02 55.63540 12.68301 325 ft 134 kts 217°
2026-05-06 20:03 55.62845 12.67223 139 ft 131 kts 217°
2026-05-06 20:03 55.62169 12.66174 23 ft 124 kts 218°
2026-05-06 20:03 55.61648 12.65374 22 ft 69 kts 223°
2026-05-06 20:03 55.61390 12.64968 26 ft 29 kts 220°
2026-05-06 20:04 55.61283 12.64722 25 ft 23 kts 242°
2026-05-06 20:04 55.61246 12.64561 24 ft 12 kts 250°
2026-05-06 20:04 55.61217 12.64409 25 ft 10 kts 252°
2026-05-06 20:04 55.61190 12.64262 24 ft 15 kts 255°
2026-05-06 20:05 55.61234 12.64110 23 ft 16 kts 341°
2026-05-06 20:05 55.61344 12.64183 24 ft 19 kts 33°
2026-05-06 20:05 55.61454 12.64309 23 ft 19 kts 33°
2026-05-06 20:05 55.61557 12.64428 25 ft 13 kts 33°
2026-05-06 20:06 55.61632 12.64514 24 ft 13 kts 33°
2026-05-06 20:06 55.61699 12.64591 23 ft 13 kts 33°
2026-05-06 20:06 55.61788 12.64693 24 ft 17 kts 33°
2026-05-06 20:06 55.61900 12.64823 25 ft 21 kts 32°
2026-05-06 20:07 55.62029 12.64970 25 ft 23 kts 33°
2026-05-06 20:07 55.62152 12.65113 25 ft 18 kts 32°
2026-05-06 20:07 55.62251 12.65197 23 ft 12 kts
2026-05-06 20:07 55.62348 12.65203 23 ft 16 kts 359°
2026-05-06 20:08 55.62439 12.65252 23 ft 13 kts 76°
2026-05-06 20:08 55.62442 12.65399 23 ft 2 kts 77°
2026-05-06 20:08 55.62467 12.65434 23 ft 6 kts 25°
2026-05-06 20:08 55.62494 12.65455 23 ft 5 kts 23°
2026-05-06 20:09 55.62512 12.65469 23 ft 0 kts 24°